Wind_Speed
10 10 10 10 10 10 11 11 11 11 12 12 12 12 11 11 10 10 10 9 9 8 8 9 9 8 8 9 9 8 8 10 11 11 14 11 8 13 12 8 13 15 17 15 13 12 11 12 12 11 10 8 7 5 3 2 3 4 3 2 2 1 2 2 3 6 11 13 12 12 11 12 14 10 9 9 10 11 11 10 8 9 12 18 22 25 25 23
10 10 10 10 10 11 11 11 11 11 12 12 12 12 12 11 11 10 10 10 10 8 8 9 9 9 8 8 7 8 10 11 15 15 16 14 10 12 14 11 13 16 18 16 15 14 11 10 10 10 8 6 6 3 0 2 3 4 3 2 2 3 5 3 5 6 10 13 12 14 13 12 14 12 10 11 12 12 12 12 11 15 18 20 24 24 23 22
11 11 11 10 11 11 11 11 11 12 12 12 12 12 11 11 11 11 10 10 10 8 8 9 9 9 9 7 6 7 10 14 15 11 9 13 15 13 12 13 14 18 20 17 14 14 11 8 8 9 8 6 5 2 0 2 2 4 4 2 1 6 8 7 6 6 9 13 13 14 13 13 14 12 10 12 14 13 12 13 13 17 18 20 21 22 23 21
11 11 11 11 11 11 11 11 11 12 12 12 11 11 11 11 11 11 10 10 9 8 8 8 8 9 9 7 5 6 9 13 6 3 5 5 11 14 14 14 15 19 21 15 12 13 11 9 8 9 9 7 3 4 3 2 1 3 3 2 3 7 8 6 5 7 11 13 12 12 12 13 13 10 10 13 13 10 11 13 14 17 20 21 20 20 21 20
12 11 11 11 11 12 12 11 12 12 12 11 10 10 10 10 10 10 10 9 9 8 8 8 8 9 7 5 3 5 9 6 3 8 4 3 5 14 16 16 17 20 20 15 12 13 12 10 9 9 9 6 3 4 2 3 2 1 3 3 2 6 8 6 6 8 11 12 11 12 12 12 11 10 10 12 10 8 9 12 16 18 20 21 20 20 19 19
12 12 11 11 11 12 13 13 13 13 12 11 10 9 9 10 10 11 10 9 8 8 9 8 8 7 4 4 3 5 9 2 6 5 2 5 4 15 17 17 18 19 18 15 13 12 11 10 9 8 7 5 5 4 1 3 4 1 3 3 3 8 9 7 8 9 9 12 12 11 11 11 12 11 9 8 9 9 9 13 16 18 20 22 20 19 18 17
12 11 11 11 12 13 14 14 14 13 12 12 11 9 9 10 10 11 10 8 7 7 9 9 7 4 3 5 4 7 10 2 7 3 4 3 7 14 17 17 18 18 17 16 14 12 10 11 10 7 6 5 5 3 2 3 7 5 2 5 7 10 10 8 9 9 9 11 10 10 12 12 13 11 8 8 11 11 11 14 17 18 20 21 19 17 16 15
12 11 11 11 12 13 14 15 15 14 13 13 12 10 9 9 10 11 10 8 6 7 9 9 5 1 3 5 7 8 8 2 8 4 6 2 10 14 17 16 18 18 16 16 15 12 10 11 11 7 5 5 4 3 4 4 8 7 6 8 8 10 10 8 8 9 8 8 8 9 11 12 12 10 9 10 12 12 13 17 17 18 19 18 17 17 16 15
12 11 11 11 12 13 14 15 15 15 15 14 13 11 10 9 10 10 10 8 6 7 9 8 3 1 3 5 9 7 2 7 8 4 3 7 13 16 17 16 18 17 15 16 15 13 10 9 10 6 5 5 4 3 3 2 2 5 11 12 10 11 10 8 9 8 6 4 6 8 9 12 12 9 9 10 12 13 15 18 18 17 17 16 15 16 15 14
13 11 12 12 13 13 14 15 15 15 15 15 15 12 10 9 9 9 8 7 6 7 7 5 2 1 5 7 10 5 5 7 5 5 4 11 15 17 17 16 18 17 15 15 15 14 11 9 7 4 5 7 5 4 1 2 4 4 11 14 12 12 11 9 9 9 6 5 5 6 8 11 10 5 7 10 12 14 16 18 18 17 16 15 14 14 14 14
13 12 12 13 13 14 15 15 15 15 15 15 14 12 9 8 7 6 5 5 5 5 5 4 1 3 8 10 10 2 6 4 3 5 7 12 14 16 16 14 16 16 14 14 14 14 13 10 6 4 4 4 4 4 2 2 5 6 8 13 12 10 10 10 10 7 6 5 3 4 6 9 7 5 7 12 12 13 16 18 18 16 15 15 15 14 12 13
13 13 13 12 13 14 15 15 15 15 15 14 12 9 7 6 5 3 2 3 3 3 3 2 1 4 9 11 6 3 6 3 5 7 9 12 12 13 11 12 14 15 13 12 13 13 13 9 7 9 4 4 5 2 2 3 5 8 8 9 9 8 8 8 9 7 5 6 6 7 5 7 6 6 10 13 12 13 15 17 17 16 14 14 14 12 11 12
14 13 13 13 13 13 15 15 15 15 14 13 10 6 5 4 3 2 1 2 3 3 1 2 2 5 10 7 2 5 3 3 7 8 9 10 9 9 9 11 12 12 12 11 12 10 10 8 9 10 7 8 6 2 2 4 4 7 7 7 7 6 7 7 6 6 5 5 7 7 4 7 7 9 12 12 13 14 14 15 16 15 14 13 13 12 11 12
16 14 13 13 13 13 14 14 15 15 13 11 7 4 3 2 2 1 1 1 2 2 0 2 3 6 9 2 6 4 3 5 8 9 9 9 9 8 9 10 8 8 9 10 10 7 8 8 10 9 8 10 5 2 5 6 5 5 3 5 5 3 6 8 6 8 7 4 6 5 3 7 8 11 12 11 14 15 14 15 15 14 14 13 12 12 12 12
16 14 13 12 13 13 13 14 15 14 11 8 5 3 2 1 1 1 1 0 1 1 0 3 5 6 8 3 5 6 7 8 9 9 9 10 10 9 10 10 8 7 6 7 6 6 8 8 9 8 7 8 7 5 8 7 6 3 1 4 5 2 5 8 7 9 7 5 8 5 4 7 8 11 12 12 14 14 14 14 15 15 15 14 12 12 12 12
18 15 13 12 12 13 13 14 14 12 9 5 2 1 0 0 1 1 1 1 2 1 1 5 6 7 8 1 8 8 8 9 10 10 9 9 9 9 11 10 9 8 7 5 5 6 8 9 8 8 7 7 8 8 7 6 6 5 4 4 4 4 6 6 6 9 6 7 10 7 4 7 6 10 12 11 13 13 13 15 16 15 15 14 12 12 11 12
19 16 13 12 12 12 13 13 13 10 6 3 1 1 1 2 2 2 2 2 2 1 5 8 5 7 5 3 8 10 8 8 11 10 8 7 6 9 11 9 9 10 9 7 6 7 9 8 7 7 8 7 8 8 7 7 6 6 7 3 5 4 6 7 7 8 9 10 11 8 6 7 7 11 11 11 12 12 12 14 15 15 14 14 12 12 12 12
19 16 13 12 12 12 12 12 11 8 4 1 1 1 1 2 2 2 2 3 3 5 8 7 6 6 3 6 7 8 9 9 10 10 8 6 6 10 11 8 9 10 9 8 8 9 8 7 7 7 7 8 8 9 7 6 6 4 5 3 3 2 5 8 8 9 13 13 11 10 8 8 9 10 10 11 12 12 12 13 14 15 15 13 13 12 12 12
20 16 13 11 11 11 12 12 9 6 3 0 1 1 1 2 2 5 8 6 6 5 2 4 5 3 3 6 5 7 9 9 9 9 9 8 8 11 10 7 9 10 9 8 9 10 8 7 8 7 8 10 9 10 8 5 9 4 6 3 1 4 5 5 9 11 14 11 11 11 8 9 12 10 9 11 11 12 12 12 12 13 14 13 12 12 12 13
19 16 12 10 10 10 11 11 7 4 2 1 1 3 3 2 2 4 7 9 7 5 3 2 4 2 2 6 7 8 9 9 10 9 9 9 9 11 9 8 10 9 9 8 9 10 9 8 9 9 11 11 11 13 8 4 10 7 6 4 1 4 5 3 8 14 14 10 10 11 9 10 12 11 10 11 12 13 13 13 13 13 13 13 13 13 13 13
19 15 11 10 9 9 10 9 6 4 3 2 5 8 3 6 4 3 2 7 6 3 4 2 3 4 0 3 5 8 10 9 8 9 10 10 10 10 9 9 10 8 10 9 8 9 9 10 11 12 14 12 14 14 5 4 10 8 4 7 1 1 4 5 7 13 14 7 8 11 10 9 9 11 12 11 11 13 13 14 14 15 14 13 14 14 13 12
18 14 11 9 9 8 10 9 5 4 4 4 9 10 4 10 7 7 8 4 5 2 3 2 3 3 2 2 4 7 9 9 8 10 10 10 12 10 8 10 10 8 11 10 7 8 9 11 12 14 13 8 11 10 5 9 9 5 5 6 5 2 4 4 7 13 12 3 6 12 10 9 7 8 10 10 11 13 13 14 14 15 15 13 13 14 14 13
17 13 10 9 9 8 10 7 5 5 5 8 11 9 5 8 8 7 8 7 3 4 4 5 5 5 7 6 6 9 10 8 9 10 10 11 12 8 7 10 11 9 11 11 9 7 8 11 13 14 10 6 7 6 7 11 8 5 7 6 5 5 6 3 7 11 10 4 5 11 7 6 8 7 8 8 11 11 9 10 13 14 14 14 14 13 13 14
16 12 9 9 9 9 9 6 6 8 8 11 11 8 5 6 9 8 8 7 3 4 2 3 3 3 5 2 8 14 10 7 9 9 11 13 10 6 8 10 11 11 10 11 12 10 9 11 14 14 10 8 10 8 10 9 7 9 8 4 5 7 6 5 3 5 6 6 5 9 6 4 7 8 7 6 8 7 2 3 9 13 13 14 14 13 13 14
15 11 8 9 9 9 10 7 7 8 8 11 8 4 4 5 7 8 8 5 6 5 3 4 3 1 4 2 9 11 7 6 8 9 12 13 9 7 8 8 9 9 10 13 13 11 9 6 11 14 12 10 13 10 11 9 8 10 7 6 8 8 6 7 8 5 2 3 7 8 4 3 7 9 9 6 4 7 5 6 10 12 13 13 13 13 14 13
14 10 7 8 9 10 9 4 3 7 8 6 2 3 5 5 5 7 8 5 5 4 5 6 2 2 4 6 10 8 8 6 7 9 11 10 7 5 7 7 7 7 10 12 9 8 8 5 5 9 10 12 13 10 11 10 10 7 6 7 5 4 5 7 9 7 3 2 6 8 5 2 5 8 9 9 8 11 11 13 15 13 12 12 12 13 13 13
12 9 7 7 9 9 7 5 7 10 7 1 3 5 5 4 5 5 6 4 5 2 2 4 2 2 3 7 10 7 4 7 8 8 9 8 6 5 7 7 7 7 8 9 8 7 7 8 7 8 9 11 11 9 9 10 10 2 5 5 6 6 6 5 7 6 5 4 4 8 8 2 3 7 10 12 12 13 13 14 14 12 13 14 13 14 14 14
11 8 7 7 9 10 9 10 12 11 6 6 5 7 5 4 4 5 6 0 6 0 1 5 2 2 3 7 9 5 3 8 7 8 9 9 8 7 7 8 8 7 7 8 8 5 7 7 10 12 11 9 10 11 7 7 11 2 5 3 5 8 8 5 7 6 6 6 4 9 11 4 2 5 10 12 12 13 13 14 13 13 15 15 14 15 15 15
10 8 7 8 10 11 12 12 12 10 8 7 7 7 6 5 5 6 5 3 3 2 1 4 2 4 7 9 7 5 5 6 4 7 9 8 8 8 5 5 9 7 7 12 9 5 8 8 10 11 12 9 10 13 9 7 10 3 5 5 4 5 8 6 7 6 4 6 4 8 11 5 2 4 8 10 11 13 13 12 12 14 16 15 15 16 16 15
9 7 7 8 8 8 9 10 12 10 7 7 8 8 8 5 5 6 0 4 1 3 4 3 4 6 9 10 7 8 8 4 4 8 8 6 7 8 5 3 7 6 7 13 12 2 2 4 4 7 10 9 10 13 10 7 9 5 3 7 6 6 7 5 5 5 5 7 5 9 10 8 3 4 7 9 9 12 12 11 13 14 15 16 16 16 16 15
9 7 7 8 8 7 8 6 5 6 6 7 8 9 8 5 7 4 6 4 0 4 5 5 6 6 10 8 6 8 9 7 6 9 7 5 8 8 5 3 4 5 7 10 10 3 2 2 3 6 9 7 8 11 9 6 9 7 4 7 6 6 6 3 4 5 5 7 4 9 9 11 6 4 9 9 8 13 14 13 16 16 15 16 15 15 16 15
8 7 7 9 10 10 11 8 7 8 7 8 8 7 7 4 4 2 7 2 3 2 3 5 6 7 8 6 5 8 8 6 7 9 8 8 7 7 8 6 4 6 7 8 9 7 7 8 8 9 10 8 7 7 7 6 8 9 6 8 7 5 5 5 6 6 5 7 5 6 7 8 3 3 11 13 10 13 15 15 17 19 18 17 15 16 15 14
6 7 7 8 10 10 11 11 12 11 9 8 7 6 7 2 3 4 4 1 1 3 2 4 3 3 3 6 6 6 5 5 7 9 8 8 7 8 10 5 7 9 6 6 9 8 7 8 10 10 8 9 10 7 6 7 9 10 8 8 7 5 6 7 7 6 5 8 6 5 4 6 4 4 10 15 14 15 16 16 17 19 19 17 16 17 16 15
5 6 7 8 9 10 10 11 11 9 7 8 6 6 6 2 4 1 3 7 5 3 2 2 2 2 3 4 4 5 3 5 7 8 7 7 7 6 8 4 6 7 5 7 9 8 8 8 11 13 8 10 14 12 9 6 7 11 10 9 9 7 6 6 6 6 5 7 5 4 2 1 4 4 6 9 11 14 15 14 14 17 17 14 13 15 16 16
6 5 6 8 9 8 9 9 9 8 6 7 6 5 3 5 4 2 5 5 1 3 5 2 5 7 6 1 4 6 6 2 5 7 6 8 6 3 6 5 5 7 7 6 6 7 10 7 11 15 10 12 15 14 13 10 6 9 9 10 10 6 5 6 6 7 6 7 5 4 2 5 5 7 9 9 11 13 15 14 14 16 17 15 12 13 14 15
7 6 7 8 6 5 6 7 7 7 7 8 6 2 3 5 5 5 5 4 5 3 3 5 7 7 5 4 4 7 6 3 5 7 6 8 7 3 3 3 3 8 7 3 3 5 8 3 11 14 10 9 13 13 13 11 7 6 9 11 9 6 6 8 8 7 8 7 4 4 2 6 6 4 6 11 12 12 14 16 17 17 19 18 14 13 14 14
9 8 6 5 2 4 6 7 7 7 8 8 3 4 3 3 5 6 5 5 3 2 5 4 3 5 2 5 5 7 6 3 6 7 5 5 5 2 3 3 2 7 8 5 4 5 7 3 10 12 9 7 10 13 14 14 11 5 6 10 10 8 8 7 6 6 8 7 5 6 7 5 6 3 2 6 8 10 13 16 19 17 18 19 16 15 15 13
10 8 4 1 2 5 6 6 8 8 8 5 2 2 3 3 5 5 5 5 3 5 8 2 1 4 3 3 5 7 6 4 5 6 4 5 4 2 3 4 5 5 10 8 5 4 5 4 8 11 10 10 11 11 12 14 15 12 6 4 8 9 8 6 5 6 7 7 5 7 9 7 4 5 8 8 7 9 11 13 17 17 16 16 15 16 16 13
11 8 4 3 1 5 6 8 10 9 7 3 2 1 2 4 5 4 5 5 4 5 6 3 1 4 4 1 2 5 4 3 5 5 4 4 5 3 4 3 5 5 7 9 7 3 4 5 5 8 9 11 11 9 9 11 13 14 10 5 6 7 6 7 6 6 6 6 5 6 8 3 2 3 8 12 9 7 10 11 13 14 15 13 13 14 14 14
10 7 3 5 1 4 8 11 10 7 3 2 3 2 2 3 3 4 4 5 4 4 4 3 3 4 2 1 1 2 3 4 5 3 4 3 3 6 2 2 1 2 3 8 9 4 4 6 3 4 6 8 8 8 9 9 10 11 9 7 8 7 5 6 7 7 7 7 5 5 5 2 5 5 2 11 8 5 9 12 11 10 12 12 12 11 10 11
9 5 4 5 1 5 9 10 5 4 1 2 2 3 4 5 4 3 2 3 3 2 3 4 4 3 1 0 1 1 2 2 3 3 4 4 1 4 3 2 4 3 2 7 8 4 4 6 5 5 5 6 9 11 12 13 10 10 9 9 9 7 7 7 7 7 7 7 7 6 4 2 4 2 2 7 6 5 7 11 12 10 12 13 13 13 12 11
8 3 5 4 2 6 10 5 1 3 1 3 2 3 2 4 5 3 1 2 2 1 1 2 3 4 2 1 0 2 2 2 3 3 4 3 4 6 3 1 4 5 4 5 4 1 3 5 7 7 5 5 8 12 15 15 9 7 10 11 10 8 8 8 7 7 7 7 8 7 4 3 4 1 2 4 4 6 5 7 12 12 10 11 13 15 16 14
6 1 5 2 4 8 8 3 2 1 3 3 1 1 1 3 3 4 3 2 2 2 1 1 2 4 2 2 3 1 2 1 2 2 2 5 5 6 3 2 4 5 6 4 0 3 2 5 6 7 5 3 4 6 8 10 7 8 10 10 10 11 10 9 8 6 7 8 7 6 5 3 6 3 4 6 6 6 4 4 9 12 9 8 10 13 13 14
3 1 4 3 5 8 8 3 2 2 4 1 3 3 2 2 6 6 5 5 4 3 2 3 3 2 2 2 4 2 1 2 1 1 0 4 4 3 3 3 5 5 3 5 5 2 3 5 4 6 6 6 6 5 5 8 9 8 8 8 11 14 14 12 10 7 8 10 10 9 5 3 5 3 4 7 7 7 6 3 6 10 10 8 8 10 11 11
3 1 2 4 6 7 4 4 2 2 4 2 1 2 3 3 4 4 4 4 4 4 3 3 2 1 1 1 3 1 1 3 1 0 1 2 5 3 2 2 4 5 4 8 8 5 4 4 4 6 7 7 6 4 4 7 8 7 10 12 14 14 13 10 7 8 8 7 10 8 1 5 5 4 4 7 8 8 7 6 5 6 8 9 8 9 10 10
4 4 3 4 5 4 0 2 4 1 2 2 1 0 2 3 5 0 4 3 3 4 3 2 1 2 1 2 3 2 2 3 0 1 1 1 4 3 2 2 2 4 5 4 6 6 5 4 4 6 8 6 4 5 7 8 8 12 15 15 11 8 10 10 7 8 7 5 9 7 2 6 7 5 4 5 6 8 8 7 7 6 6 8 8 9 8 6
5 3 0 2 2 2 2 3 2 1 1 1 0 1 2 1 3 2 1 2 3 3 2 2 2 2 1 2 3 1 2 3 0 3 2 3 1 2 1 4 1 5 2 5 6 5 5 5 5 7 9 7 4 5 9 10 10 12 13 12 9 9 13 13 9 8 7 7 8 4 2 6 7 7 7 5 4 6 7 7 7 7 6 6 7 9 9 7
4 2 2 2 2 2 2 1 1 1 1 1 1 1 2 1 1 1 2 1 1 2 2 1 1 1 0 1 3 1 1 2 1 2 2 2 3 2 3 4 1 3 7 8 4 2 5 5 6 7 9 9 8 7 8 8 7 6 6 5 8 11 14 13 13 14 11 8 5 7 8 5 0 5 9 9 5 5 6 7 6 7 8 7 6 8 9 10
3 1 2 1 3 3 3 3 2 1 1 1 1 1 2 1 2 2 2 2 1 1 2 2 0 1 1 0 3 1 2 1 1 2 2 2 3 2 2 3 4 4 5 4 1 1 4 4 5 8 7 9 9 7 7 8 6 5 7 6 8 10 11 11 14 14 10 8 8 8 6 5 9 5 4 7 6 5 6 6 6 7 7 8 8 8 8 7
4 3 1 3 4 2 1 2 3 3 2 0 2 1 1 2 2 3 1 4 3 1 2 1 2 2 3 2 2 1 3 2 3 2 1 4 2 2 2 1 4 6 6 5 2 0 2 2 3 7 7 8 9 8 8 9 7 5 6 6 8 9 9 9 9 9 8 8 10 11 5 5 8 4 3 5 5 6 6 6 7 6 6 8 9 9 9 7
8 5 3 4 3 1 2 3 3 4 3 3 2 2 1 0 2 2 2 4 5 3 2 3 1 1 1 3 3 4 4 1 3 3 1 3 2 0 1 1 3 6 5 4 4 2 3 3 4 6 7 6 6 5 5 7 8 8 4 2 4 4 5 5 3 3 5 7 9 10 4 4 4 1 4 4 4 6 7 8 7 5 5 6 7 8 9 8
10 4 2 5 2 1 3 4 3 4 1 2 3 1 1 2 2 2 1 1 1 1 3 4 3 3 0 4 4 4 4 2 2 2 2 3 2 0 1 1 2 4 4 3 4 3 3 4 4 5 6 5 5 5 5 7 8 7 5 2 4 3 2 1 1 2 2 4 5 5 1 4 1 2 1 3 4 5 7 7 7 6 6 6 7 9 10 10
Wind_Direction
342 341 339 339 337 336 335 335 334 334 333 332 332 331 331 332 329 329 326 324 323 317 314 316 318 317 320 327 329 328 324 310 286 245 233 247 237 228 237 225 210 192 174 187 207 209 211 219 223 220 225 226 225 234 223 239 269 262 275 348 335 26 104 202 173 116 122 138 141 137 142 136 132 130 126 136 131 122 124 123 127 131 117 112 121 131 135 140
341 339 338 336 335 334 334 333 332 331 330 330 330 329 330 329 328 327 324 325 321 315 312 312 318 318 322 332 333 334 327 303 273 253 241 244 241 232 235 220 202 186 179 196 207 206 215 217 214 214 224 235 225 209 83 268 280 299 321 353 307 114 126 153 127 122 131 138 140 136 142 141 136 138 143 144 135 135 132 125 127 118 110 115 127 134 137 143
340 338 337 335 333 333 332 332 331 330 330 328 328 328 328 328 328 325 323 325 320 314 308 310 317 318 327 335 334 344 325 295 269 250 228 233 241 237 220 201 195 185 185 201 207 208 226 229 216 218 229 238 229 222 247 248 264 318 327 327 31 119 125 111 126 170 150 141 140 134 142 142 138 143 148 145 141 144 136 131 132 124 125 130 133 138 141 148
339 337 336 334 332 333 333 331 331 331 330 327 327 326 326 326 324 324 323 321 319 314 308 312 316 322 333 332 341 360 310 281 264 122 134 231 238 218 199 187 187 187 194 210 214 216 235 242 230 228 238 242 244 252 263 24 13 297 325 358 71 124 129 109 136 165 145 139 136 131 137 137 138 142 145 146 143 143 140 140 140 135 136 137 139 143 146 151
339 337 335 333 333 334 334 332 332 331 330 327 325 323 323 321 320 321 319 317 320 314 310 311 316 329 334 323 348 340 291 264 91 91 96 318 229 194 186 182 184 187 201 218 217 222 237 240 232 231 245 255 257 251 271 67 138 261 30 51 106 132 126 120 133 142 137 131 133 138 138 135 138 137 141 150 144 136 141 142 140 139 140 140 142 144 149 153
339 336 334 334 336 335 336 335 332 330 329 327 326 325 320 318 317 317 317 321 319 312 312 312 323 337 331 317 333 292 272 272 66 82 40 335 207 181 178 179 180 185 206 220 216 221 231 232 229 227 240 254 240 249 313 143 157 60 50 87 118 114 118 131 129 132 137 131 138 142 135 136 135 127 134 146 132 129 139 139 138 138 141 141 141 145 151 154
341 337 335 336 335 335 337 334 331 331 329 326 327 326 319 313 312 313 319 326 322 314 310 314 329 338 327 312 298 259 250 282 63 64 333 322 192 179 172 174 178 188 211 220 214 217 223 224 225 229 242 254 237 240 263 171 109 75 103 118 106 105 117 132 127 134 137 129 134 132 133 139 131 124 126 125 122 133 139 134 136 139 140 140 142 148 150 152
344 338 337 334 333 335 335 333 331 330 327 325 324 324 319 311 308 309 316 326 328 313 307 317 338 344 341 314 278 246 230 29 60 30 332 171 175 173 165 171 183 194 214 217 212 215 220 226 227 231 246 257 239 219 224 172 108 108 130 121 114 113 121 131 129 131 127 119 118 122 134 132 124 124 118 119 127 136 137 134 138 140 141 143 145 148 148 152
346 340 334 330 332 334 333 332 331 328 327 325 324 323 322 314 306 306 311 323 322 313 313 320 347 24 339 304 275 256 156 53 61 47 8 155 165 167 167 177 190 198 210 212 213 216 219 225 225 232 258 259 252 240 226 191 149 133 129 136 135 123 124 133 129 116 101 77 81 112 132 126 128 131 116 123 135 136 136 136 140 143 144 146 146 147 148 152
349 342 335 333 333 332 331 331 330 329 327 325 324 323 323 316 308 311 313 320 322 318 317 318 10 341 295 275 270 259 82 48 69 85 114 154 157 168 178 184 190 201 208 206 211 217 222 229 226 238 270 256 246 256 257 158 190 161 128 132 128 122 129 134 126 114 105 74 78 122 132 128 127 118 124 137 143 140 140 140 143 147 146 147 146 146 150 154
351 343 338 338 335 332 331 331 331 331 328 326 326 323 320 315 311 313 309 316 326 321 313 310 353 300 286 274 269 285 63 39 80 104 140 154 160 174 184 188 192 203 207 204 211 218 227 244 249 225 258 264 221 221 232 143 150 143 123 120 111 113 127 131 126 130 128 93 116 147 118 129 110 67 139 149 147 143 144 145 147 149 147 148 148 147 153 155
351 344 338 338 336 333 332 333 334 332 330 328 328 325 317 315 310 296 289 311 327 331 317 301 317 307 291 272 261 39 52 69 112 120 145 155 169 178 184 191 193 206 211 206 210 218 229 256 262 227 258 305 251 222 141 175 152 138 132 125 122 125 123 124 130 150 143 108 162 178 133 138 122 112 146 150 148 144 147 150 149 150 149 150 149 149 157 156
351 345 338 337 335 333 334 335 334 333 331 330 332 327 314 316 298 267 273 316 339 352 321 299 312 289 279 273 87 75 62 115 131 134 148 159 171 180 190 190 196 212 216 214 211 215 226 259 264 236 258 273 263 19 138 200 169 150 142 135 142 149 134 125 136 155 142 124 181 199 156 135 135 144 149 155 156 148 152 155 153 153 151 154 152 154 161 156
349 344 340 336 331 332 335 335 335 334 332 332 332 325 319 317 289 275 296 325 15 16 278 303 302 275 265 282 74 106 135 127 146 149 153 161 160 169 181 185 203 212 211 222 219 207 220 254 267 250 258 266 287 3 221 209 179 170 131 140 159 173 148 142 160 168 162 175 203 217 161 138 143 150 152 162 166 159 158 159 159 156 155 158 156 160 162 158
347 344 338 332 328 330 334 336 337 336 335 334 334 332 329 310 264 234 282 26 114 111 319 283 268 264 259 217 103 129 149 156 165 155 154 158 156 163 170 180 198 195 199 223 215 204 225 246 256 250 240 240 263 257 220 201 179 154 73 172 167 177 158 148 173 186 177 173 201 225 148 142 148 152 159 168 172 172 164 161 164 161 159 161 159 165 162 160
347 341 336 330 327 329 334 338 337 337 337 330 325 318 295 141 144 177 246 168 148 123 248 263 239 247 277 79 121 154 174 172 161 153 160 161 160 161 161 173 184 185 194 205 201 204 225 237 240 252 252 223 228 241 228 205 180 165 206 207 140 174 177 152 184 199 184 165 190 219 148 145 163 160 167 171 174 179 170 164 168 165 162 162 163 168 162 162
345 339 336 329 326 330 334 338 338 339 336 324 298 229 154 148 169 165 178 192 196 202 246 275 276 254 277 93 150 181 171 150 149 156 168 174 171 158 159 172 176 181 188 193 205 205 209 225 231 242 254 243 227 230 233 218 200 190 208 202 120 183 198 160 181 192 182 181 184 193 163 145 163 164 167 174 179 183 175 167 169 169 166 165 169 169 164 166
344 339 336 328 327 330 332 338 340 341 336 314 175 187 134 156 196 208 223 202 205 230 245 259 268 266 216 158 176 167 143 144 156 162 163 173 170 162 170 177 169 176 185 190 200 201 195 204 222 228 228 232 226 229 235 226 236 203 177 205 123 172 234 170 169 185 182 189 181 176 170 147 157 167 170 179 185 187 179 169 172 173 168 168 173 171 167 169
342 338 334 325 325 327 333 338 336 343 341 295 74 19 127 176 228 241 235 211 206 243 261 190 216 299 90 144 139 120 133 146 159 167 166 169 166 172 179 176 178 185 190 186 187 195 195 199 215 225 222 220 220 232 239 241 270 259 135 209 183 140 235 189 157 172 173 180 180 173 166 156 163 171 180 183 186 194 181 169 177 176 169 173 177 173 170 173
341 338 330 321 322 327 335 334 328 340 313 233 284 275 243 238 228 207 213 214 233 287 320 178 217 270 115 130 120 121 139 157 172 172 169 170 171 178 179 180 189 197 206 190 176 189 197 207 213 216 220 218 225 238 239 237 273 279 133 152 284 154 203 204 148 165 176 179 174 172 162 158 165 174 194 193 186 196 184 172 181 178 173 179 179 176 174 176
339 335 325 319 322 325 331 325 313 306 274 231 263 262 307 7 346 8 326 221 209 260 277 285 286 275 344 102 131 149 163 179 184 166 167 178 183 184 175 188 193 195 216 200 171 183 199 217 215 214 221 218 227 238 249 245 256 270 188 154 185 188 181 197 165 168 189 189 157 170 169 154 165 181 191 190 190 197 186 178 183 179 178 182 181 178 175 175
337 333 324 318 318 322 329 316 280 271 262 225 254 264 357 22 349 343 329 262 146 128 250 218 234 238 170 202 196 188 190 181 173 165 171 187 197 194 171 191 205 192 204 204 184 182 198 225 219 210 220 228 239 240 245 253 249 258 243 195 183 150 120 187 209 186 187 185 149 173 179 156 168 201 191 181 197 200 186 182 184 180 180 184 184 178 176 175
336 331 323 316 315 318 321 305 253 257 246 227 257 283 357 9 330 318 299 279 113 132 204 181 205 185 166 198 188 203 214 174 167 167 171 198 205 207 192 194 211 202 198 202 197 193 199 220 222 209 207 223 250 247 231 247 255 229 233 231 184 157 133 154 233 206 166 119 150 170 180 163 167 202 205 199 210 202 188 188 186 184 184 186 187 179 176 177
333 329 323 315 311 309 317 309 250 247 236 236 264 302 347 342 318 319 295 272 115 115 180 142 239 201 141 151 172 204 222 163 172 163 168 206 198 195 218 206 213 210 201 203 203 218 213 206 219 204 178 211 233 236 234 237 248 234 226 238 206 194 188 154 198 216 138 110 143 160 168 177 177 192 203 220 229 217 221 224 199 192 187 187 187 180 179 180
330 327 322 311 305 304 312 300 240 244 244 245 262 299 313 313 316 320 297 258 117 106 163 152 234 207 95 148 184 218 245 164 173 157 169 213 200 184 214 209 223 213 190 204 213 226 218 200 225 198 167 215 233 230 235 234 248 242 207 213 228 213 204 168 156 157 142 148 157 170 187 185 188 199 196 188 219 222 207 209 211 199 191 191 187 182 183 183
327 322 317 305 302 303 306 296 248 274 269 257 306 329 296 308 319 317 292 244 119 110 173 164 191 140 145 185 178 216 243 169 137 144 173 219 224 223 222 194 219 227 195 199 220 239 208 173 219 192 173 213 231 236 230 227 254 254 165 178 209 192 200 199 177 161 190 204 163 194 227 161 179 213 207 178 185 210 203 200 204 195 190 196 191 186 187 184
323 316 312 297 294 297 301 330 324 298 283 344 355 309 300 312 314 307 274 214 109 83 183 133 110 137 158 175 180 214 212 129 124 152 182 218 223 233 232 197 203 229 207 190 215 236 191 164 186 200 206 214 222 234 216 215 245 298 84 158 166 177 207 224 221 201 181 159 157 212 228 235 204 212 202 185 187 202 205 205 201 192 194 195 192 192 189 187
320 311 302 291 290 288 284 301 307 303 336 17 321 300 310 303 291 274 264 91 81 320 258 82 80 243 174 171 204 237 123 141 169 163 174 208 217 223 226 213 213 211 197 198 203 173 145 176 205 208 219 221 220 225 207 211 235 270 11 281 194 201 218 225 252 251 189 171 181 211 211 218 213 189 180 180 194 202 204 207 198 195 202 195 193 195 189 188
317 303 295 290 288 287 282 280 281 297 341 341 305 310 302 278 263 249 255 55 76 226 94 81 156 199 172 167 199 216 171 190 197 142 164 202 223 249 258 216 215 199 193 223 226 148 148 196 213 212 221 222 221 226 217 219 237 293 358 281 256 243 236 228 248 272 250 237 227 192 200 212 169 170 175 173 195 204 198 203 201 199 203 196 194 196 189 188
310 294 291 288 283 289 283 259 251 274 314 313 306 304 282 265 254 251 130 71 104 138 138 186 161 153 176 174 177 194 180 144 111 147 172 191 198 230 278 260 228 204 189 230 248 261 126 182 213 227 228 224 225 226 216 223 252 310 336 252 238 234 237 230 242 273 272 261 227 167 192 235 221 171 187 183 195 197 186 191 198 200 203 198 195 195 190 186
303 288 285 278 274 279 277 262 251 279 306 307 301 284 265 244 242 255 70 67 94 125 171 186 131 167 201 182 160 186 176 135 143 173 178 175 180 200 219 217 224 201 188 221 235 220 162 209 238 237 235 244 249 228 199 206 254 268 263 250 232 215 234 236 237 251 248 257 239 140 172 232 237 180 191 195 193 187 183 188 190 192 200 201 197 194 190 185
293 280 277 272 274 273 274 300 323 305 299 298 290 270 257 245 250 50 84 153 226 124 173 143 139 212 211 175 166 178 176 154 165 185 184 180 185 192 198 197 198 198 198 206 200 187 196 208 208 213 225 243 256 233 191 189 239 244 236 243 235 216 234 241 230 233 236 255 251 138 178 226 226 168 183 185 197 195 192 192 187 187 193 197 198 194 190 188
284 273 273 271 276 272 269 283 295 296 297 286 271 255 256 277 31 32 68 114 24 37 72 134 164 244 202 191 182 159 154 146 176 204 198 192 203 187 185 226 247 220 210 200 196 195 194 191 195 201 204 216 229 228 203 190 207 220 226 232 232 220 230 241 233 231 242 245 219 154 212 223 146 150 172 175 194 198 195 195 188 187 189 190 198 195 188 189
267 262 270 275 281 280 277 281 284 291 289 271 259 255 265 38 77 281 39 61 68 83 113 171 195 179 216 229 152 155 182 150 184 211 189 197 229 192 177 233 262 243 245 219 202 198 206 199 194 197 184 189 214 232 242 242 208 210 224 235 240 238 234 245 241 236 256 260 232 167 215 210 132 179 170 175 198 186 182 190 186 188 185 183 200 200 189 189
257 255 256 265 280 287 285 284 279 275 272 266 261 260 293 41 48 360 35 41 26 131 126 198 230 200 201 184 132 197 241 222 198 206 181 194 214 200 193 193 214 245 262 240 209 198 227 221 170 184 191 182 201 226 243 260 238 202 214 231 241 239 225 248 262 262 273 277 266 226 193 74 105 181 166 179 208 184 168 169 173 184 181 179 197 202 194 192
251 240 230 242 269 290 274 270 267 260 263 268 265 281 54 46 12 15 26 335 323 22 129 192 230 226 183 141 166 203 227 254 200 193 194 191 177 173 207 154 180 247 259 263 235 208 232 216 137 169 207 194 201 216 222 246 256 196 202 222 237 243 230 242 252 256 261 261 253 240 211 106 129 189 165 177 193 179 169 165 166 178 180 181 193 196 195 195
248 228 221 237 292 309 277 263 261 254 261 274 315 22 36 51 17 18 13 329 338 311 259 208 218 275 207 156 179 186 193 218 196 194 202 178 141 114 207 143 86 275 283 300 271 238 245 218 142 171 211 205 211 219 214 231 252 245 212 209 218 238 246 256 264 246 244 252 239 228 229 185 173 201 187 195 193 181 183 169 160 169 179 184 188 188 191 194
265 239 224 220 349 308 286 267 262 258 263 276 49 14 321 45 43 21 4 331 291 261 274 275 82 285 256 167 163 167 176 196 197 196 189 169 134 75 251 193 144 244 277 282 264 254 265 240 155 175 205 196 203 221 217 221 236 254 274 227 215 231 230 227 250 249 239 247 250 235 233 219 188 175 171 187 213 194 176 159 154 163 178 187 184 180 183 186
266 246 194 116 29 292 280 271 266 259 259 276 102 119 336 51 64 33 5 329 291 289 301 331 350 265 263 10 126 163 172 198 212 193 169 182 157 145 269 257 155 200 256 261 260 262 263 254 168 175 200 189 188 212 217 207 217 242 270 275 245 246 239 219 218 240 253 255 255 251 243 209 49 277 182 163 185 179 144 148 162 165 172 182 185 178 177 183
251 248 134 94 22 273 269 266 264 262 270 4 41 66 12 16 62 57 7 327 309 321 335 332 281 249 235 26 76 190 196 208 217 170 150 217 176 142 173 317 237 215 217 242 261 272 247 251 216 175 180 181 188 205 220 213 199 214 234 239 231 227 239 247 230 226 242 253 254 256 254 103 56 313 195 128 137 133 127 147 160 162 169 177 183 172 171 188
249 247 102 89 269 258 262 258 258 281 269 89 46 49 34 333 342 48 37 321 320 330 349 334 308 287 219 141 96 204 211 185 185 147 156 213 230 103 99 4 303 282 202 216 237 242 245 254 241 209 181 201 210 197 212 228 214 204 214 224 232 224 220 240 243 233 236 246 249 251 250 105 81 333 50 105 123 123 134 150 147 156 176 175 172 166 172 189
258 255 87 78 264 253 262 263 236 290 6 79 38 44 62 280 309 353 326 295 304 297 331 339 324 323 317 304 251 195 185 128 159 185 165 146 52 52 74 360 305 282 254 230 217 60 330 282 260 244 216 218 214 189 202 226 236 233 224 217 228 234 226 233 238 238 240 239 241 250 252 125 111 141 121 119 127 120 142 158 137 140 166 170 162 165 174 174
253 310 91 97 263 256 264 265 188 227 56 67 249 59 24 289 341 5 1 348 334 328 350 30 356 337 345 302 285 194 118 105 156 190 141 115 81 52 49 352 309 270 267 272 243 63 327 262 256 264 250 203 181 168 198 230 248 252 233 215 222 232 232 241 251 256 254 244 235 241 242 149 126 154 138 120 118 119 141 163 130 128 147 166 159 161 168 164
277 357 111 154 236 255 267 270 190 127 88 140 199 128 106 19 10 358 20 33 1 344 15 39 31 4 18 292 293 20 93 239 222 229 181 117 103 64 40 347 308 280 307 357 4 26 260 255 248 251 241 208 188 170 195 223 228 238 237 217 220 231 234 236 242 246 249 253 248 242 239 143 124 146 135 126 130 129 132 143 125 126 138 151 158 159 164 167
291 249 145 158 214 247 287 334 342 92 117 164 136 118 166 117 63 335 348 35 9 351 7 40 30 321 349 277 271 333 250 261 296 300 292 101 115 94 34 2 321 320 27 18 341 305 270 273 260 246 241 228 219 215 230 226 212 223 241 231 221 228 240 244 243 235 233 257 266 260 228 105 127 158 158 144 135 130 137 146 131 126 134 138 149 155 154 164
273 226 191 160 198 231 7 356 315 340 128 174 157 138 282 86 104 225 313 8 20 1 357 22 336 262 255 257 246 230 254 276 343 151 241 201 132 89 13 307 332 14 36 5 291 275 271 258 251 261 264 265 285 301 290 267 223 209 221 230 232 236 243 246 248 243 238 246 254 250 153 133 140 145 166 157 137 136 144 146 134 129 136 139 144 142 134 154
270 269 292 117 201 220 157 184 251 352 82 228 190 70 304 353 117 148 333 15 5 343 346 15 333 272 249 270 263 247 260 283 309 148 204 265 240 94 283 263 132 102 147 230 232 248 275 253 231 244 250 252 261 263 269 268 246 223 215 219 227 231 236 242 247 256 260 241 241 284 296 210 176 155 166 159 144 152 147 148 143 132 128 129 138 143 143 160
260 299 33 25 288 264 134 116 353 47 108 279 309 274 270 296 65 62 62 57 345 340 351 13 321 275 236 258 271 258 219 268 240 186 216 251 238 199 215 265 332 138 203 226 212 255 283 260 241 246 237 228 224 221 240 252 252 258 259 247 243 234 231 238 241 247 257 249 258 342 333 287 192 141 158 145 149 172 145 138 139 128 126 127 135 148 153 164
263 261 111 203 278 319 56 54 333 275 109 2 302 237 273 341 76 59 12 328 329 29 335 323 64 311 321 211 277 289 100 301 235 184 247 258 234 243 246 269 304 310 277 273 85 18 289 267 256 269 258 229 217 204 217 228 220 241 258 265 273 258 243 242 245 249 263 268 270 293 309 8 33 37 125 127 139 157 134 130 131 129 136 142 145 145 142 147
305 326 30 223 238 285 140 167 257 238 141 183 240 175 310 329 55 81 37 325 339 77 272 275 92 352 353 52 315 34 81 340 336 92 260 280 263 250 258 254 283 296 307 326 14 69 268 251 241 272 274 240 218 204 208 215 202 202 234 248 255 254 247 251 266 274 279 274 267 265 259 70 59 60 101 105 133 141 132 132 130 132 145 149 147 141 137 140
323 329 339 275 234 161 224 210 247 254 198 185 175 124 185 268 44 67 77 356 351 22 349 334 72 274 352 59 26 38 74 333 333 56 314 308 2 250 250 20 294 291 306 331 335 308 271 259 226 242 253 239 234 236 230 232 217 188 167 294 271 245 236 244 278 309 288 279 268 254 234 76 61 109 105 106 149 149 134 129 125 128 142 150 147 134 129 131
333 303 283 280 250 159 241 222 216 253 258 86 73 35 270 103 79 266 219 72 331 20 1 329 298 265 196 82 50 14 18 4 13 34 331 322 354 285 249 275 298 315 321 306 298 289 278 278 248 238 250 240 247 276 289 280 254 196 137 10 335 8 13 294 72 56 299 299 291 263 221 76 36 285 107 131 158 142 124 119 123 122 110 105 109 107 110 114
Height
808 807 807 805 804 803 802 801 800 799 798 797 796 796 795 794 793 792 792 790 790 789 789 788 787 786 786 785 784 783 782 782 781 780 778 772 770 770 770 771 771 772 773 773 772 771 769 769 767 766 766 764 763 762 759 756 757 763 778 793 797 798 798 795 788 779 784 790 787 787 784 788 792 787 781 780 784 786 787 787 783 780 779 783 791 797 802 807
808 807 806 805 804 803 802 801 800 799 798 797 796 795 794 794 793 792 791 790 789 788 788 787 787 786 785 784 784 783 782 781 780 776 772 769 769 770 770 770 771 772 772 772 770 768 768 767 764 764 765 766 762 758 762 760 761 770 779 791 795 795 793 784 781 779 780 785 785 785 785 786 789 787 783 789 796 791 792 793 786 788 789 790 794 799 805 807
807 807 806 805 804 803 802 801 800 799 797 797 795 795 794 793 792 791 791 789 789 788 787 787 786 785 785 784 783 783 782 780 777 770 767 767 768 768 769 770 770 771 771 770 768 767 766 763 762 763 766 768 762 760 767 763 767 776 779 790 790 784 783 778 779 781 779 778 781 786 786 785 785 782 783 791 796 793 795 795 792 797 797 796 798 800 805 808
807 807 806 804 804 802 802 800 800 798 797 796 795 794 793 792 792 791 790 789 788 787 786 786 785 785 785 783 783 783 782 781 772 764 765 766 766 767 768 769 769 770 770 769 768 767 764 762 761 762 766 770 764 761 767 767 773 780 780 789 783 774 780 780 781 781 775 774 779 784 786 788 784 780 785 791 798 800 795 791 791 796 796 797 799 801 805 808
807 806 805 804 803 802 801 800 799 798 797 796 795 794 793 792 791 790 789 788 787 786 786 785 785 784 784 783 783 782 783 782 769 761 766 765 764 766 766 768 769 770 770 770 768 766 765 762 761 765 768 770 768 769 770 768 774 782 782 783 775 771 782 781 778 778 772 774 781 784 788 788 782 783 787 790 800 801 790 785 786 789 792 795 798 801 804 806
807 806 805 804 803 802 801 800 799 797 796 795 794 793 792 791 790 789 788 787 787 786 785 785 784 784 784 783 783 783 784 779 765 762 766 764 765 765 766 769 769 770 771 770 766 765 765 762 765 770 770 770 772 773 770 765 769 784 788 781 774 773 782 781 776 777 773 777 785 785 785 782 785 791 788 789 795 791 782 780 783 786 789 793 797 801 804 806
806 805 804 803 802 801 800 799 798 797 796 794 794 793 792 791 789 789 787 787 786 786 785 784 784 784 783 782 783 782 779 771 762 764 765 764 766 765 767 769 769 772 770 768 765 765 765 765 769 768 771 774 771 770 767 763 769 785 792 784 779 778 782 782 777 778 776 781 784 780 782 785 792 795 790 790 790 784 780 778 782 786 788 792 798 801 804 806
806 805 804 803 802 801 800 799 797 796 795 794 793 792 791 790 789 788 787 787 786 785 785 784 784 783 782 782 781 778 772 766 763 765 764 764 766 766 769 769 770 771 769 768 764 763 765 767 768 764 774 775 765 766 761 764 775 781 787 785 781 783 784 782 780 781 780 782 782 782 788 789 790 791 793 794 789 783 780 780 784 787 790 794 798 801 803 806
806 805 804 803 802 801 799 798 797 795 794 793 792 791 791 790 788 788 787 787 786 786 784 784 784 783 783 782 779 775 769 765 765 765 765 765 766 767 769 769 771 770 768 767 763 763 765 766 764 760 772 772 762 762 756 770 786 774 776 783 781 785 786 785 785 787 788 786 788 793 795 792 787 789 797 795 788 784 781 784 787 789 794 796 798 801 804 807
806 805 804 803 802 801 799 798 796 795 793 792 791 790 790 789 788 787 787 786 786 785 784 784 784 783 784 781 778 775 767 764 766 766 766 767 768 769 769 769 770 769 766 765 763 762 761 761 758 754 764 766 760 761 756 770 780 764 765 777 780 785 787 788 791 792 792 792 794 799 799 794 789 795 806 797 786 784 785 788 790 792 797 797 799 802 804 807
805 805 804 803 802 800 799 797 796 794 793 791 790 790 789 788 788 787 786 786 785 785 784 784 784 783 783 780 778 773 765 765 767 767 768 768 769 769 769 769 768 768 765 763 763 761 759 756 752 756 765 762 758 761 758 758 762 760 764 777 785 788 788 789 793 795 794 797 797 798 802 800 797 804 807 796 787 786 789 792 792 795 798 798 801 803 805 807
805 804 803 802 801 800 798 797 795 794 792 791 790 789 788 788 787 786 786 785 785 785 784 784 784 784 782 778 773 769 766 767 767 767 769 768 769 769 768 769 768 767 764 762 763 760 760 756 753 763 766 760 760 763 761 752 755 764 770 785 796 793 794 793 794 796 796 801 797 796 809 813 810 809 801 792 789 789 792 794 794 797 798 799 802 804 806 807
805 804 803 802 800 799 798 796 795 793 792 790 790 788 788 787 786 786 786 785 785 785 784 784 783 783 784 777 767 766 767 767 768 768 769 769 769 769 769 769 767 766 764 762 762 760 762 759 758 761 758 759 763 759 757 751 756 770 777 791 798 797 801 797 795 798 799 801 795 797 818 824 815 807 798 792 791 793 796 796 796 797 799 800 802 805 806 807
805 803 802 801 800 799 797 796 794 792 791 790 789 788 788 787 787 786 786 786 785 785 785 784 783 784 783 774 765 767 768 767 769 767 768 768 768 770 769 769 768 766 765 763 762 762 764 761 759 760 757 758 758 754 758 760 763 774 785 794 799 806 809 800 797 802 806 804 793 799 820 824 813 804 798 794 792 795 799 797 796 797 799 801 802 805 807 807
804 803 802 801 799 798 797 795 794 792 791 790 789 788 787 787 787 786 786 786 785 785 784 784 783 782 779 770 765 768 768 767 767 767 767 767 768 769 768 769 769 767 766 765 764 764 765 763 764 766 761 755 757 763 767 767 768 777 795 804 803 812 813 803 799 799 805 806 795 801 818 820 811 804 799 794 793 795 798 798 796 797 799 801 803 804 806 807
804 803 801 800 798 797 796 795 793 792 790 789 789 788 787 787 786 786 786 785 785 785 784 784 781 781 779 770 766 768 767 765 765 766 767 766 766 767 768 769 768 768 768 766 766 766 765 765 765 765 762 760 765 771 769 771 777 785 798 802 804 816 814 806 802 796 800 804 800 803 814 819 812 804 799 795 795 795 796 798 796 798 799 801 803 804 805 808
804 802 801 799 798 797 796 794 793 791 790 789 788 788 787 787 786 786 785 785 785 785 785 783 778 779 777 768 768 768 763 763 765 766 767 766 766 766 767 768 767 768 767 767 767 766 766 767 768 766 765 766 764 766 776 784 786 786 788 788 797 809 808 808 808 797 797 802 801 802 807 814 810 803 800 797 796 797 797 799 798 798 799 801 802 803 805 808
803 802 800 799 798 797 795 794 792 791 790 789 788 788 788 787 787 786 785 785 785 785 785 782 780 783 779 768 767 765 761 764 765 766 767 767 766 767 767 766 766 767 769 770 769 768 769 769 770 773 773 770 765 766 780 786 779 781 790 788 794 804 800 803 807 796 794 799 800 801 806 811 809 804 802 799 796 799 799 798 798 797 799 801 802 803 805 808
803 801 800 798 797 796 795 794 792 791 790 789 789 789 788 788 787 786 785 785 784 784 783 779 777 781 777 766 762 761 762 765 766 766 766 766 766 766 765 766 766 768 773 777 774 770 770 773 776 781 780 772 767 764 767 772 767 772 787 788 791 807 805 795 796 792 791 799 800 800 805 808 811 809 805 800 798 800 798 797 799 798 799 802 802 803 805 807
802 800 799 798 797 796 795 794 792 791 791 790 789 789 788 785 785 783 781 780 778 774 773 770 769 770 768 762 761 763 765 766 765 765 765 766 765 765 765 766 768 771 774 775 775 768 767 780 782 780 776 768 764 757 753 762 763 763 780 790 790 803 808 795 792 790 786 797 802 799 804 807 809 812 807 801 800 800 798 799 801 799 801 802 802 804 805 806
801 800 799 797 797 796 795 794 792 792 791 790 790 789 783 780 782 782 778 775 769 766 768 766 764 765 763 761 761 763 766 767 764 762 766 765 764 769 770 768 775 779 772 767 769 766 769 782 778 768 764 759 758 753 751 762 764 762 774 793 801 801 803 798 793 788 781 794 806 800 804 810 809 811 807 803 805 802 798 800 802 800 801 802 802 804 805 804
801 800 798 797 797 795 795 793 792 792 790 790 790 784 777 778 781 779 778 775 767 764 767 765 765 765 763 762 762 760 764 769 768 764 764 764 765 770 771 771 777 778 769 765 770 774 781 781 768 758 755 756 757 753 759 765 762 767 769 781 800 798 799 804 798 788 780 793 809 804 805 811 812 811 806 806 807 801 795 796 798 799 801 802 801 803 804 804
801 799 798 797 796 796 794 792 792 791 790 790 786 780 776 779 780 777 778 778 772 767 765 766 766 764 764 764 762 762 764 767 771 767 762 765 766 766 769 772 774 772 769 769 773 781 786 776 758 751 754 762 767 761 766 768 762 767 768 773 788 788 797 813 808 792 779 788 803 802 806 811 812 813 808 805 803 796 794 795 795 796 798 800 798 799 802 804
800 798 798 797 795 796 793 792 792 790 789 787 784 780 779 781 780 778 778 774 772 769 763 763 762 760 763 762 760 763 763 761 766 766 762 764 765 765 767 769 771 771 769 767 770 776 774 762 749 750 759 768 773 770 769 771 767 761 758 767 778 778 785 796 802 794 783 791 797 798 815 820 814 818 814 807 803 799 801 803 801 797 795 797 797 798 801 802
799 798 797 796 795 795 793 793 791 787 787 784 782 781 780 782 779 779 780 776 775 772 765 764 763 760 760 761 762 760 759 758 759 760 759 759 761 765 766 763 766 771 769 768 770 770 763 751 745 752 765 771 773 773 767 769 771 759 753 759 763 766 773 780 792 801 803 806 798 797 823 828 815 816 816 812 812 810 810 812 809 802 797 797 798 799 800 800
798 797 796 796 795 794 793 791 787 785 784 779 780 780 780 781 779 780 782 780 779 777 770 768 767 765 762 762 760 758 765 764 754 754 758 758 755 759 766 763 762 766 765 765 768 765 755 749 750 757 768 773 774 772 763 763 771 764 750 749 753 760 769 774 781 799 816 814 796 794 816 827 823 820 814 812 819 816 811 812 808 802 801 800 799 799 799 800
798 796 796 796 794 794 792 788 786 784 780 778 780 780 780 780 779 780 785 789 788 778 771 768 767 766 763 760 756 762 777 769 756 758 757 758 755 755 767 767 764 765 756 762 775 765 752 757 763 765 769 774 776 773 760 758 770 769 751 746 756 764 770 772 772 785 802 807 804 800 805 823 830 821 810 810 819 819 812 809 804 800 801 800 799 798 798 799
797 795 795 795 794 794 792 789 788 782 778 780 780 780 780 780 780 781 791 805 796 773 767 767 764 762 759 758 756 763 771 763 765 767 754 756 758 756 768 767 764 764 753 764 780 764 755 768 771 768 774 775 772 766 754 756 768 764 753 750 755 759 764 768 770 774 778 795 817 811 803 824 831 812 807 814 820 823 818 809 804 803 801 799 799 797 795 797
796 795 794 794 793 792 791 790 788 782 780 781 780 781 780 778 780 782 794 807 792 769 768 769 765 763 760 761 762 762 761 759 766 766 754 757 757 756 766 761 757 764 759 762 769 759 757 764 762 764 773 770 763 756 750 758 765 755 753 756 755 757 760 764 771 772 774 790 811 808 799 820 832 818 814 822 823 819 815 809 804 801 799 797 797 795 793 795
795 794 793 793 792 791 790 788 785 783 782 781 781 781 778 780 784 793 804 801 782 770 768 767 767 766 763 767 768 763 761 762 763 761 760 761 758 757 759 752 752 763 766 764 761 758 754 753 755 760 763 758 755 752 749 755 758 754 760 764 763 764 761 764 769 772 790 802 797 795 795 808 828 824 812 812 809 803 804 807 803 799 798 796 794 792 791 793
794 793 792 792 791 790 788 784 782 783 782 782 782 778 779 783 785 799 807 788 774 774 769 766 768 766 763 768 770 764 762 765 764 766 769 766 765 766 764 762 763 768 775 773 767 764 764 766 765 759 753 751 753 753 749 753 757 760 768 769 773 777 772 778 782 783 808 813 785 782 795 805 818 815 800 796 792 789 795 800 800 800 801 797 793 790 789 790
793 792 791 790 789 789 787 783 782 782 781 782 781 777 782 790 788 791 791 780 779 779 769 769 770 765 762 765 768 764 763 768 766 766 769 769 770 770 769 771 771 778 785 779 772 772 772 771 767 760 754 754 762 765 760 762 765 768 772 775 786 800 804 811 809 802 812 805 780 782 801 811 812 797 786 787 785 784 786 787 790 793 796 796 793 791 788 788
792 791 790 789 788 787 786 784 782 781 781 780 780 778 784 797 798 786 776 777 782 773 764 768 768 763 764 766 767 762 764 770 768 765 764 764 768 766 764 764 761 770 778 773 774 778 777 770 763 765 763 756 764 773 773 772 772 773 775 780 790 806 826 835 821 810 810 794 774 778 792 805 808 792 778 780 779 777 776 776 781 784 787 792 791 788 787 787
791 790 789 788 786 785 784 782 781 780 780 779 780 783 788 796 794 781 773 775 775 768 767 770 768 769 769 768 767 763 768 772 765 764 767 768 772 769 766 765 759 760 766 768 769 773 783 782 767 766 766 760 763 766 763 761 764 768 765 769 780 788 810 826 816 810 809 790 772 774 784 796 804 794 778 775 772 768 770 771 775 781 784 788 789 786 785 787
790 789 788 786 785 783 781 781 780 779 779 778 781 787 792 795 786 778 778 775 770 768 770 769 769 774 772 768 768 764 768 773 764 763 770 772 775 773 769 769 764 762 767 771 766 762 775 773 753 752 753 754 763 759 751 757 765 761 755 768 776 769 781 801 799 792 794 793 785 779 779 782 789 785 776 779 776 766 768 772 776 783 785 788 791 788 786 787
789 787 787 785 783 782 780 780 779 778 778 778 782 785 787 789 784 780 780 775 770 771 773 774 772 771 770 770 774 768 764 768 767 768 770 768 770 771 768 766 764 763 764 771 771 765 773 767 749 752 753 748 757 755 749 760 765 757 761 773 766 751 764 788 792 781 784 800 795 781 782 783 785 783 772 773 776 767 766 772 778 783 784 788 791 788 787 786
788 785 784 781 781 781 780 779 777 778 776 775 784 788 781 780 779 777 776 773 770 770 774 779 775 772 772 774 776 772 767 767 767 770 771 769 771 772 769 767 767 766 761 767 773 764 767 771 755 756 764 753 747 751 750 750 752 759 766 762 753 752 760 774 791 793 795 804 792 777 786 790 791 795 782 772 775 771 764 766 773 780 781 784 786 785 786 784
785 782 780 779 780 780 778 778 776 775 775 776 787 790 779 776 776 774 774 772 770 770 772 776 775 772 772 773 773 769 769 774 771 772 775 777 779 776 771 769 769 769 763 765 773 762 761 776 766 754 763 757 745 754 762 752 745 753 753 743 752 773 776 777 795 804 803 806 795 777 775 775 780 788 785 784 783 772 763 762 770 779 780 780 782 783 784 784
785 781 779 777 779 779 777 777 773 771 775 780 788 788 779 776 776 772 772 771 771 772 774 774 773 772 769 770 772 767 769 777 774 774 779 780 782 778 771 769 769 769 765 763 769 762 759 779 779 757 751 754 753 761 771 764 753 751 751 748 753 765 769 772 780 788 794 802 799 788 779 778 782 777 771 779 778 765 764 769 770 773 777 778 779 780 783 784
782 780 779 775 777 779 776 774 772 771 777 782 784 784 779 777 774 771 771 771 771 774 776 775 772 773 771 770 772 769 769 774 772 774 781 778 778 779 772 771 772 768 765 764 765 763 761 774 781 764 750 757 765 764 763 762 759 761 767 768 763 757 759 763 765 766 777 790 795 796 795 791 787 776 764 766 766 759 764 773 773 771 775 777 777 779 784 785
778 779 778 774 777 778 774 775 776 774 777 782 783 782 782 781 776 773 771 769 770 770 771 774 773 771 770 771 773 771 770 774 774 776 782 778 777 781 776 773 774 769 768 770 768 767 768 771 774 769 763 767 765 753 748 749 749 756 765 765 762 759 763 777 781 765 759 773 781 786 798 796 782 772 766 763 763 761 760 766 775 779 777 775 777 781 786 787
780 782 779 774 776 776 774 778 778 773 777 782 783 782 784 782 778 775 773 769 770 769 767 772 775 772 772 773 773 771 773 778 779 779 780 777 777 781 777 772 772 769 769 772 766 763 768 773 775 771 763 760 751 739 740 742 738 745 752 752 755 755 760 779 789 773 760 764 763 766 787 793 776 766 767 765 763 763 760 759 770 781 778 772 775 779 782 785
780 779 776 775 775 773 777 783 780 777 781 783 781 781 781 780 779 777 775 774 774 773 772 775 776 776 777 775 772 772 775 781 782 778 778 779 780 780 775 772 772 769 769 771 767 766 773 779 782 778 764 752 744 738 739 740 743 752 750 744 750 752 752 760 764 763 764 764 762 771 787 788 773 763 764 765 764 764 763 758 763 778 780 774 774 777 778 782
775 773 772 774 775 773 778 783 780 782 786 783 781 783 782 781 782 781 780 781 779 777 779 780 779 779 779 776 774 775 780 786 786 779 777 781 782 778 774 773 772 770 771 776 776 776 781 783 786 792 788 777 768 765 763 756 755 760 752 744 748 748 747 751 750 757 769 764 759 772 786 787 778 770 766 766 766 767 767 762 762 772 779 777 776 777 778 781
776 777 774 771 771 772 776 775 774 781 787 786 786 786 784 783 784 783 782 782 780 778 782 783 780 778 778 778 779 779 779 783 786 783 779 781 781 778 775 774 773 771 772 778 777 776 783 785 787 797 803 801 796 791 783 770 762 760 754 749 748 745 748 754 756 765 774 769 761 767 783 790 782 774 773 771 769 771 770 768 767 769 773 776 777 778 779 781
782 783 779 774 770 770 774 773 773 779 784 787 790 788 786 786 786 782 781 782 781 778 781 782 779 780 781 782 785 786 781 778 782 787 786 784 782 780 777 774 774 774 777 781 778 776 781 783 783 790 794 793 794 788 775 766 763 764 760 754 750 750 752 756 765 770 768 770 771 765 773 786 783 778 779 776 773 774 773 771 772 773 774 775 776 779 781 781
784 782 779 781 779 776 777 776 775 780 782 785 791 790 788 788 787 784 782 784 783 780 781 782 781 784 788 787 789 791 787 783 784 788 790 787 783 780 777 773 772 776 781 780 775 776 785 786 781 784 784 780 779 777 768 762 761 758 756 755 756 758 758 761 769 767 761 772 780 766 761 775 778 775 778 779 779 778 775 773 775 775 776 776 777 780 783 785
784 782 776 780 786 783 782 781 779 781 783 784 788 791 790 789 790 790 787 784 782 781 786 789 787 786 787 788 791 794 793 793 793 792 792 790 786 784 781 776 772 773 775 774 770 775 787 789 780 777 779 772 768 768 765 763 763 760 759 762 762 761 762 765 768 762 759 772 779 769 767 772 772 772 775 777 780 778 775 775 775 775 778 779 780 782 784 786
782 782 777 778 784 784 783 784 783 783 785 788 790 791 791 791 792 792 789 788 788 785 788 795 793 787 784 785 789 794 797 800 800 796 793 791 788 788 789 787 780 772 771 773 772 776 787 790 781 778 779 771 764 765 764 764 768 771 770 770 769 766 763 764 764 758 758 768 769 767 774 777 775 778 776 771 772 774 774 776 777 779 781 781 783 784 785 786
787 788 785 783 785 784 783 784 785 785 787 791 793 792 791 792 793 792 789 791 795 792 789 794 794 788 786 786 789 793 795 796 797 795 793 792 791 790 792 794 788 779 777 779 778 779 787 791 784 782 786 778 766 764 764 765 771 777 778 775 772 770 769 768 768 765 767 774 770 767 778 783 779 780 779 772 770 774 778 780 782 783 783 782 784 786 787 789
792 790 790 790 789 787 786 785 785 786 788 789 792 792 792 794 793 793 792 790 792 794 792 792 792 789 788 789 792 793 791 789 790 789 787 789 790 789 789 789 788 787 785 786 785 783 787 791 785 786 796 789 773 769 770 765 767 776 784 783 776 775 776 774 774 776 778 781 777 775 783 788 782 779 780 777 774 776 781 783 785 786 784 783 785 787 789 791
795 791 789 792 794 791 788 786 785 789 789 787 790 792 793 793 792 793 797 794 789 791 791 790 791 790 792 796 797 794 788 785 785 784 781 782 782 781 783 783 783 788 789 789 789 787 788 792 789 791 801 796 782 780 779 777 782 788 789 787 781 778 779 777 777 779 778 779 786 791 792 789 785 783 784 782 780 781 783 783 785 787 788 788 789 791 793 795